Madisonville, KY

11:08 PM CST on November 14, 2019 (GMT -0600)
Madisonville

Weather History for K2I0 - October, 2019

Change the Weather History Date:

Tuesday, October 22, 2019

  Actual Average (WUND) Record (WUND)
Temperature  
Mean Temperature 56 °F -  
Max Temperature 66 °F - - (-1)
Min Temperature 45 °F - - (-1)
Degree Days  
Heating Degree Days 10    
Growing Degree Days 6 (Base 50)    
Moisture  
Dew Point 31 °F    
Average Humidity 42    
Maximum Humidity 65    
Minimum Humidity 27    
Precipitation  
Precipitation 0.00 in - - ()
Sea Level Pressure  
Sea Level Pressure 29.97 in    
Wind  
Wind Speed 11 mph ()    
Max Wind Speed 21 mph    
Max Gust Speed 28 mph    
Visibility 10.0 miles    
Events      
Averages and records for this station are not official NWS values.
T = Trace of Precipitation, MM = Missing Value Source: Averaged Metar Reports

Daily Weather History Graph

Daily Weather History Graph

Search for Another Location

Airport or City:

Astronomy

Oct. 22, 2019 Rise Set
Actual Time 7:04 AM CDT 6:03 PM CDT
Civil Twilight 6:37 AM CDT 6:30 PM CDT
Nautical Twilight 6:07 AM CDT 7:00 PM CDT
Astronomical Twilight 5:36 AM CDT 7:30 PM CDT
Moon 12:23 AM CDT (10/22) 3:02 PM CDT (10/22)
Length of Visible Light 11h 52m
Length of Day
10h 59m
Last Quarter, 37% of the Moon is Illuminated
Oct 22
Last Quarter
Oct 27
New
Nov 4
First Quarter
Nov 12
Full
Nov 19
Last Quarter

Hourly Weather History & Observations

Time (CDT) Temp. Windchill Dew Point Humidity Pressure Visibility Wind Dir Wind Speed Gust Speed Precip Events Conditions
1:15 PM 65.1 °F - 32.9 °F 30% 29.92 in 10.0 mi West 16.1 mph 24.2 mph N/A   Clear
1:55 PM 65.3 °F - 31.8 °F 29% 29.91 in 10.0 mi West 17.3 mph 23.0 mph N/A   Clear
2:15 PM 65.5 °F - 31.8 °F 28% 29.91 in 10.0 mi West 16.1 mph 24.2 mph N/A   Clear
2:35 PM 66.2 °F - 31.3 °F 27% 29.92 in 10.0 mi WSW 20.7 mph 26.5 mph N/A   Scattered Clouds
2:55 PM 66.0 °F - 30.9 °F 27% 29.91 in 10.0 mi WSW 17.3 mph 23.0 mph N/A   Scattered Clouds
3:15 PM 65.7 °F - 31.3 °F 28% 29.92 in 10.0 mi WSW 20.7 mph 27.6 mph N/A   Scattered Clouds
3:35 PM 65.1 °F - 30.4 °F 27% 29.93 in 10.0 mi WSW 18.4 mph 25.3 mph N/A   Scattered Clouds
3:55 PM 64.6 °F - 30.6 °F 28% 29.93 in 10.0 mi West 15.0 mph 26.5 mph N/A   Scattered Clouds
4:15 PM 63.9 °F - 29.8 °F 28% 29.93 in 10.0 mi West 15.0 mph 23.0 mph N/A   Clear
4:35 PM 62.8 °F - 28.8 °F 28% 29.93 in 10.0 mi West 18.4 mph 25.3 mph N/A   Clear
4:55 PM 62.2 °F - 28.0 °F 27% 29.94 in 10.0 mi West 15.0 mph 20.7 mph N/A   Clear
5:15 PM 61.3 °F - 28.6 °F 29% 29.95 in 10.0 mi West 19.6 mph - N/A   Clear
5:35 PM 60.6 °F - 28.2 °F 29% 29.96 in 10.0 mi West 11.5 mph 21.9 mph N/A   Clear
5:55 PM 59.4 °F - 27.0 °F 29% 29.96 in 10.0 mi West 15.0 mph 20.7 mph N/A   Clear
6:15 PM 58.1 °F - 27.3 °F 31% 29.97 in 10.0 mi West 10.4 mph - N/A   Clear
6:35 PM 55.9 °F - 28.2 °F 35% 29.97 in 10.0 mi WSW 8.1 mph - N/A   Clear
6:55 PM 52.9 °F - 29.5 °F 41% 29.98 in 10.0 mi WSW 6.9 mph - N/A   Clear
7:15 PM 50.9 °F - 30.7 °F 46% 29.98 in 10.0 mi WSW 5.8 mph - N/A   Clear
7:35 PM 52.2 °F - 30.0 °F 43% 29.99 in 10.0 mi SSW 4.6 mph - N/A   Clear
7:55 PM 51.1 °F - 32.0 °F 48% 30.00 in 10.0 mi SW 5.8 mph - N/A   Clear
8:15 PM 48.4 °F - 32.2 °F 54% 30.00 in 10.0 mi SW 5.8 mph - N/A   Clear
8:35 PM 50.2 °F - 32.0 °F 50% 30.01 in 10.0 mi SSW 4.6 mph - N/A   Clear
8:55 PM 47.3 °F - 32.4 °F 56% 30.01 in 10.0 mi SW 3.5 mph - N/A   Clear
9:15 PM 46.6 °F - 33.3 °F 60% 30.01 in 10.0 mi SSW 3.5 mph - N/A   Clear
9:35 PM 45.9 °F 44.6 °F 33.8 °F 63% 30.02 in 10.0 mi South 3.5 mph - N/A   Clear
9:55 PM 45.1 °F - 33.4 °F 64% 30.04 in 10.0 mi Calm Calm - N/A   Clear
10:15 PM 45.5 °F - 34.3 °F 65% 30.04 in 10.0 mi Calm Calm - N/A   Clear
10:35 PM 45.1 °F 42.8 °F 33.4 °F 64% 30.04 in 10.0 mi SW 4.6 mph - N/A   Clear
10:55 PM 45.3 °F 42.3 °F 32.5 °F 61% 30.04 in 10.0 mi SW 5.8 mph - N/A   Clear
11:35 PM 45.7 °F 42.0 °F 32.2 °F 59% 30.05 in 10.0 mi West 6.9 mph - N/A   Clear
11:55 PM 46.2 °F 42.7 °F 32.0 °F 58% 30.05 in 10.0 mi West 6.9 mph - N/A   Clear